OE3PDB-10 Weather Reports


time (UTC)temp
C
wind
direction
speed
KPH
gust
KPH
rain 1hr
cm
rain 24hr
cm
rain mn
cm
humidity
%
barometer
mb
20260507203041 13 315 0.0 0.0 0.00 0.00 0.00 63 1111.0
20260507202041 13 0 0.0 0.0 0.00 0.00 0.00 63 1111.0
20260507201041 13 67 0.0 0.0 0.00 0.00 0.00 63 1111.0
20260507200041 13 270 0.0 0.0 0.00 0.00 0.00 63 1111.0
20260507195041 13 315 0.0 0.0 0.00 0.00 0.00 63 1111.0
20260507194041 13 225 0.0 0.0 0.00 0.00 0.00 62 1111.0
20260507193041 13 225 0.0 0.0 0.00 0.00 0.00 62 1111.0
20260507192041 13 292 0.0 0.0 0.00 0.00 0.00 61 1111.0
20260507191041 13 135 0.0 0.0 0.00 0.00 0.00 60 1111.0
20260507190041 14 202 0.0 0.0 0.00 0.00 0.00 60 1111.0
20260507185041 14 135 0.0 0.0 0.00 0.00 0.00 59 1111.0
20260507184041 14 225 0.0 0.0 0.00 0.00 0.00 59 1111.0
20260507183041 14 247 0.0 0.0 0.00 0.00 0.00 58 1111.0
20260507182041 15 270 0.0 0.0 0.00 0.00 0.00 58 1111.0
20260507181041 15 337 0.0 0.0 0.00 0.00 0.00 57 1111.0
20260507180041 15 292 0.0 0.0 0.00 0.00 0.00 56 1111.0
20260507175041 15 270 0.0 0.0 0.00 0.00 0.00 56 1111.0
20260507174041 15 292 0.0 0.0 0.00 0.00 0.00 56 1111.0
20260507173041 15 22 0.0 0.0 0.00 0.00 0.00 55 1111.0
20260507172041 15 202 0.0 0.0 0.00 0.00 0.00 54 1111.0
20260507171041 15 225 0.0 0.0 0.00 0.00 0.00 54 1111.0
20260507170041 15 292 0.0 0.0 0.00 0.00 0.00 54 1111.0
20260507165041 16 270 0.0 0.0 0.00 0.00 0.00 54 1111.0
20260507164041 16 247 0.0 0.0 0.00 0.00 0.00 54 1111.0
20260507163041 16 225 0.0 0.0 0.00 0.00 0.00 52 1111.0
20260507162041 16 247 0.0 0.0 0.00 0.00 0.00 52 1111.0
20260507161041 17 247 0.0 0.0 0.00 0.00 0.00 51 1111.0
20260507160041 17 270 0.0 0.0 0.00 0.00 0.00 50 1111.0
20260507155041 18 270 0.0 0.0 0.00 0.00 0.00 47 1111.0
20260507154041 18 225 0.0 0.0 0.00 0.00 0.00 46 1111.0
20260507153041 18 157 0.0 0.0 0.00 0.00 0.00 46 1111.0
20260507152041 19 270 0.0 0.0 0.00 0.00 0.00 45 1111.0
20260507151041 19 292 0.0 0.0 0.00 0.00 0.00 45 1111.0
20260507150041 19 270 0.0 0.0 0.00 0.00 0.00 44 1111.0
20260507145041 20 270 0.0 0.0 0.00 0.00 0.00 43 1111.0
20260507144041 20 247 0.0 0.0 0.00 0.00 0.00 42 1111.0
20260507143041 21 247 0.0 0.0 0.00 0.00 0.00 41 1111.0
20260507142041 21 247 0.0 0.0 0.00 0.00 0.00 41 1111.0
20260507141041 21 225 0.0 0.0 0.00 0.00 0.00 39 1111.0
20260507140041 22 112 0.0 0.0 0.00 0.00 0.00 39 1111.0
20260507135041 22 135 0.0 0.0 0.00 0.00 0.00 39 1111.0
20260507134041 22 135 0.0 0.0 0.00 0.00 0.00 39 1111.0
20260507133041 22 135 0.0 0.0 0.00 0.00 0.00 39 1111.0
20260507132041 23 135 0.0 0.0 0.00 0.00 0.00 38 1111.0
20260507131041 23 90 0.0 0.0 0.00 0.00 0.00 39 1111.0
20260507130041 23 135 0.0 0.0 0.00 0.00 0.00 39 1111.0
20260507125041 23 22 0.0 0.0 0.00 0.00 0.00 40 1111.0
20260507124042 22 22 0.0 0.0 0.00 0.00 0.00 42 1111.0
20260507123042 21 112 0.0 0.0 0.00 0.00 0.00 42 1111.0
20260507122042 21 112 0.0 0.0 0.00 0.00 0.00 44 1111.0
20260507121042 20 90 0.0 0.0 0.00 0.00 0.00 47 1111.0
20260507120042 19 270 0.0 0.0 0.00 0.00 0.00 47 1111.0
20260507115042 18 337 0.0 0.0 0.00 0.00 0.00 48 1111.0
20260507114042 18 135 0.0 0.0 0.00 0.00 0.00 48 1111.0
20260507113042 18 112 0.0 0.0 0.00 0.00 0.00 49 1111.0
20260507112042 18 0 0.0 0.0 0.00 0.00 0.00 50 1111.0
20260507111042 18 45 0.0 0.0 0.00 0.00 0.00 49 1111.0
20260507110042 18 135 0.0 0.0 0.00 0.00 0.00 50 1111.0
20260507105042 18 22 0.0 0.0 0.00 0.00 0.00 50 1111.0
20260507104042 18 157 0.0 0.0 0.00 0.00 0.00 50 1111.0
20260507103042 18 90 0.0 0.0 0.00 0.00 0.00 52 1111.0
20260507102042 18 0 0.0 0.0 0.00 0.00 0.00 52 1111.0
20260507101042 17 22 0.0 0.0 0.00 0.00 0.00 54 1111.0
20260507100042 17 315 0.0 0.0 0.00 0.00 0.00 54 1111.0
20260507095042 17 247 0.0 0.0 0.00 0.00 0.00 54 1111.0
20260507094042 17 67 0.0 0.0 0.00 0.00 0.00 53 1111.0
20260507093042 17 22 0.0 0.0 0.00 0.00 0.00 53 1111.0
20260507092042 17 0 0.0 0.0 0.00 0.00 0.00 54 1111.0
20260507091042 16 247 0.0 0.0 0.00 0.00 0.00 55 1111.0
20260507090042 16 0 0.0 0.0 0.00 0.00 0.00 55 1111.0
20260507085042 16 292 0.0 0.0 0.00 0.00 0.00 55 1111.0
20260507084042 16 180 0.0 0.0 0.00 0.00 0.00 55 1111.0
20260507083042 16 112 0.0 0.0 0.00 0.00 0.00 55 1111.0
20260507082042 16 135 0.0 0.0 0.00 0.00 0.00 57 1111.0
20260507081042 16 112 0.0 0.0 0.00 0.00 0.00 58 1111.0
20260507080042 15 67 0.0 0.0 0.00 0.00 0.00 59 1111.0
20260507075042 15 90 0.0 0.0 0.00 0.00 0.00 59 1111.0
20260507074042 15 22 0.0 0.0 0.00 0.00 0.00 60 1111.0
20260507073042 15 202 0.0 0.0 0.00 0.00 0.00 60 1111.0
20260507072042 15 0 0.0 0.0 0.00 0.00 0.00 62 1111.0
20260507071042 14 112 0.0 0.0 0.00 0.00 0.00 64 1111.0
20260507070042 13 45 0.0 0.0 0.00 0.00 0.00 65 1111.0
20260507065042 13 90 0.0 0.0 0.00 0.00 0.00 66 1111.0
20260507064042 13 337 0.0 0.0 0.00 0.00 0.00 67 1111.0
20260507063042 12 112 0.0 0.0 0.00 0.00 0.00 67 1111.0
20260507062042 12 90 0.0 0.0 0.00 0.00 0.00 68 1111.0
20260507061042 12 270 0.0 0.0 0.00 0.00 0.00 68 1111.0
20260507060042 12 22 0.0 0.0 0.00 0.00 0.00 69 1111.0
20260507055042 12 135 0.0 0.0 0.00 0.00 0.00 69 1111.0
20260507054042 12 135 0.0 0.0 0.00 0.00 0.00 70 1111.0
20260507053042 12 112 0.0 0.0 0.00 0.00 0.00 71 1111.0
20260507052042 11 292 0.0 0.0 0.00 0.00 0.00 71 1111.0
20260507051042 11 202 0.0 0.0 0.00 0.00 0.00 71 1111.0
20260507050042 11 22 0.0 0.0 0.00 0.00 0.00 71 1111.0
20260507045042 11 112 0.0 0.0 0.00 0.00 0.00 72 1111.0
20260507044042 11 112 0.0 0.0 0.00 0.00 0.00 72 1111.0
20260507043043 11 112 0.0 0.0 0.00 0.00 0.00 72 1111.0
20260507042042 11 45 0.0 0.0 0.00 0.00 0.00 71 1111.0
20260507041042 11 157 0.0 0.0 0.00 0.00 0.00 71 1111.0
20260507040042 11 22 0.0 0.0 0.00 0.00 0.00 71 1111.0
20260507035042 11 337 0.0 0.0 0.00 0.00 0.00 71 1111.0
20260507034042 11 292 0.0 0.0 0.00 0.00 0.00 71 1111.0
20260507033042 11 135 0.0 0.0 0.00 0.00 0.00 71 1111.0
20260507032042 11 0 0.0 0.0 0.00 0.00 0.00 70 1111.0
20260507031043 11 67 0.0 0.0 0.00 0.00 0.00 70 1111.0
20260507030043 11 247 0.0 0.0 0.00 0.00 0.00 70 1111.0
20260507025043 11 157 0.0 0.0 0.00 0.00 0.00 70 1111.0
20260507024043 11 67 0.0 0.0 0.00 0.00 0.00 70 1111.0
20260507023043 12 67 0.0 0.0 0.00 0.00 0.00 70 1111.0
20260507022043 12 292 0.0 0.0 0.00 0.00 0.00 70 1111.0
20260507021043 12 315 0.0 0.0 0.00 0.00 0.00 70 1111.0
20260507020043 12 0 0.0 0.0 0.00 0.00 0.00 71 1111.0
20260507015043 12 315 0.0 0.0 0.00 0.00 0.00 71 1111.0
20260507014043 12 270 0.0 0.0 0.00 0.00 0.00 72 1111.0
20260507013043 12 45 0.0 0.0 0.00 0.00 0.00 72 1111.0
20260507012043 12 157 0.0 0.0 0.00 0.00 0.00 72 1111.0
20260507011043 12 292 0.0 0.0 0.00 0.00 0.00 72 1111.0
20260507010043 12 135 0.0 0.0 0.00 0.00 0.00 72 1111.0
20260507005043 12 135 0.0 0.0 0.00 0.00 0.00 72 1111.0
20260507004043 12 112 0.0 0.0 0.00 0.00 0.00 72 1111.0
20260507003043 13 315 0.0 0.0 0.00 0.00 0.00 71 1111.0
20260507002043 13 270 0.0 0.0 0.00 0.00 0.00 71 1111.0
20260507001043 13 45 0.0 0.0 0.00 0.00 0.00 71 1111.0
20260506235042 13 157 0.0 0.0 0.00 0.00 0.00 71 1111.0
20260506234042 13 337 0.0 0.0 0.00 0.00 0.00 71 1111.0
20260506233042 13 337 0.0 0.0 0.00 0.00 0.00 72 1111.0
20260506232042 13 292 0.0 0.0 0.00 0.00 0.00 72 1111.0
20260506231042 13 135 0.0 0.0 0.00 0.00 0.00 73 1111.0
20260506230042 13 337 0.0 0.0 0.00 0.00 0.00 72 1111.0
20260506225042 13 225 0.0 0.0 0.00 0.00 0.00 71 1111.0
20260506224042 14 0 0.0 0.0 0.00 0.00 0.00 71 1111.0
20260506223042 14 90 0.0 0.0 0.00 0.00 0.00 68 1111.0
20260506222042 14 112 0.0 0.0 0.00 0.00 0.00 67 1111.0
20260506221042 15 247 0.0 0.0 0.00 0.00 0.00 66 1111.0
20260506220042 15 270 0.0 0.0 0.00 0.00 0.00 65 1111.0
20260506215042 15 225 0.0 0.0 0.00 0.00 0.00 64 1111.0
20260506214042 15 202 0.0 0.0 0.00 0.00 0.00 63 1111.0
20260506213042 15 225 0.0 0.0 0.00 0.00 0.00 61 1111.0
20260506212042 15 22 0.0 0.0 0.00 0.00 0.00 62 1111.0
20260506211042 15 247 0.0 0.0 0.00 0.00 0.00 62 1111.0
20260506210042 15 247 0.0 0.0 0.00 0.00 0.00 61 1111.0
20260506205042 16 270 0.0 0.0 0.00 0.00 0.00 61 1111.0
20260506204042 16 270 0.0 0.0 0.00 0.00 0.00 58 1111.0